AirNav   Get $300 off a Bose A20 Aviation Headset
 
 940 users online  

3G6 Tri-City Airport
Sebring, Ohio, USA

GOING TO SEBRING?


FAA INFORMATION EFFECTIVE 12 SEPTEMBER 2019

Location

FAA Identifier: 3G6
Lat/Long: 40-54-21.6000N 081-00-00.1000W
40-54.360000N 081-00.001667W
40.9060000,-81.0000278
(estimated)
Elevation: 1187.5 ft. / 362.0 m (surveyed)
Variation: 04W (1965)
From city: 1 mile SE of SEBRING, OH
Time zone: UTC -4 (UTC -5 during Standard Time)
Zip code: 44609

Airport Operations

Airport use: Open to the public
Activation date: 07/1969
Control tower: no
ARTCC: CLEVELAND CENTER
FSS: CLEVELAND FLIGHT SERVICE STATION
NOTAMs facility: CLE (NOTAM-D service available)
Attendance: 0900-DUSK
Wind indicator: lighted
Segmented circle: no
Lights: ACTVT NSTD MIRL RWY 17/35 - CTAF/MULTICOM 122.9 MHZ

Airport Communications

CTAF: 122.9
CLEVELAND APPROACH: 125.5
CLEVELAND DEPARTURE: 125.5
  • APCH/DEP SVC PRVDD BY CLEVELAND APCH (CLE) 0600-0000. APCH/DEP SVC PRVDD BY CLEVELAND ARTCC (ZOB) ON FREQS 120.6/298.95 (CHARDON RCAG) 0000-0600.

Nearby radio navigation aids

VOR radial/distance  VOR name  Freq  Var
ACOr147/15.2AKRON VOR/DME114.4004W
BSVr067/22.0BRIGGS VOR/DME112.4004W
YNGr215/29.4YOUNGSTOWN VORTAC109.0005W
EWCr286/36.1ELLWOOD CITY VOR/DME115.8008W
CXRr174/37.4CHARDON VOR/DME112.7005W

 
NDB name  Hdg/Dist  Freq  Var  ID
CASTLE264/27.427209WUCP ..- -.-. .--.

Airport Services

Fuel available: 100LL
100LL FUEL AVAILABLE UPON REQUEST. CALL AIRPORT MANAGER (330) 428-1269
Parking: hangars and tiedowns
Bottled oxygen: NONE
Bulk oxygen: NONE

Runway Information

Runway 17/35

Dimensions: 2768 x 45 ft. / 844 x 14 m
Surface: asphalt, in poor condition
Runway edge lights: non-standard
NSTD: THLD LGTD WITH 2 BLUE/RED LGTS EACH SIDE
Runway edge markings: RWY 17/35: MARKING NSTD, BASIC, NUMBERS AND CENTERLINE UNDERSIZED.
RUNWAY 17  RUNWAY 35
Latitude: 40-54.585583N40-54.134550N
Longitude: 081-00.044550W080-59.957617W
Elevation: 1184.7 ft.1177.9 ft.
Traffic pattern: leftleft
Runway heading: 176 magnetic, 172 true356 magnetic, 352 true
Markings: NSTDNSTD
Touchdown point: yes, no lightsyes, no lights
Obstructions: 30 ft. trees, 900 ft. from runway, 95 ft. left of centerline, 23:1 slope to clear
RWY 17: OBST CLNS SLOPE 0:1 DUE TO +10-FT TREE 75-FT FM RWY 17 70-FT L
18 ft. pole, 315 ft. from runway, 130 ft. both sides of centerline, 6:1 slope to clear
RWY 35: OBST CLNS SLOPE 0:1 DUE TO +35 FT TREE 175-FT FM RWY 35 125 R

Airport Ownership and Management from official FAA records

Ownership: Privately-owned
Owner: 3G6 L.L.C.
18294 ST. RTE 62
BELOIT, OH 44609
Phone 330-938-1216
Manager: WAYNE HARTER, JR.
18294 ST RTE. 62
BELOIT, OH 44609
Phone 330-428-1269

Airport Operational Statistics

Aircraft based on the field: 18
Single engine airplanes: 18
    
Aircraft operations: avg 21/day *
71% local general aviation
29% transient general aviation
<1% military
<1% air taxi
* for 12-month period ending 26 August 2017

Additional Remarks

FOR APCH/DEP SVC WHEN CLEVELAND APCH UNAVBL, CTC CLEVELAND ARTCC AT 440-774-0223.
BIRDS & OTHER WILDLIFE ON & INVOF AIRPORT
FOR CD CTC CLEVELAND APCH AT 216-352-2323, FOR CD WHEN CLEVELAND APCH UNAVBL, CTC CLEVELAND ARTCC AT 440-774-0490.

Instrument Procedures

NOTE: All procedures below are presented as PDF files. If you need a reader for these files, you should download the free Adobe Reader.

NOT FOR NAVIGATION. Please procure official charts for flight.
FAA instrument procedures published for use from 12 September 2019 at 0901Z to 10 October 2019 at 0900Z.

 
IAPs - Instrument Approach Procedures
VOR OR GPS RWY 17 **CHANGED**   download (149KB)
NOTE: Special Take-Off Minimums/Departure Procedures apply   download (164KB)

Other nearby airports with instrument procedures:

38D - Salem Airpark Inc (7 nm E)
4G4 - Youngstown Elser Metro Airport (15 nm E)
KCAK - Akron-Canton Regional Airport (20 nm W)
KTSO - Carroll County-Tolson Airport (21 nm S)
02G - Columbiana County Airport (21 nm SE)
 
Loc | Ops | Rwys | IFR | FBO | Links
Com | Nav | Svcs | Stats | Notes
Area around 3G6 (Tri-City Airport)
 
Road maps at: MapQuest Bing Google
 
Aerial photo
WARNING: Photo may not be current or correct
Aerial photo of 3G6 (Tri-City Airport)
Photo taken 03-Jul-2005
from approx. 5000' AGL

Do you have a better or more recent aerial photo of Tri-City Airport that you would like to share? If so, please send us your photo.

 
Sectional chart

 
Airport distance calculator
Flying to Tri-City Airport? Find the distance to fly.

From to 3G6

Sunrise and sunset
Times for 16-Sep-2019
 Local
(UTC-4)
 Zulu
(UTC)
Morning civil twilight06:3910:39
Sunrise07:0611:06
Sunset19:3123:31
Evening civil twilight19:5923:59

Current date and time
Zulu (UTC)  17-Sep-2019 01:09:14
Local (UTC-4)  16-Sep-2019 21:09:14
 
METAR
KCAK 
20nm W 
170051Z 02008KT 10SM FEW060 21/18 A3008 RMK AO2 SLP179 T02110178
KPOV 
22nm NW 
170055Z AUTO 02004KT 10SM CLR 19/16 A3010 RMK AO2 T01880157 PWINO
KAKR 
22nm W 
170054Z AUTO 02005KT 10SM FEW060 23/17 A3008 RMK AO2 SLP179 T02280172 $
KYNG 
26nm NE 
170051Z 04006KT 10SM SCT250 19/16 A3008 RMK AO2 SLP181 T01890156
KUCP 
28nm E 
170056Z AUTO 01005KT 10SM BKN060 21/18 A3009 RMK AO2 SLP198 T02110178 PNO $
KBVI 
28nm E 
170056Z AUTO 35006KT 10SM CLR 22/18 A3007 RMK AO2 T02150175
KPHD 
32nm SW 
170053Z AUTO 36005KT 10SM FEW044 24/17 A3006 RMK AO2 SLP174 T02390172
KPJC 
39nm E 
170056Z AUTO 00000KT 10SM CLR 19/18 A3005 RMK AO2
KBJJ 
40nm W 
170056Z AUTO 01006KT 10SM CLR 21/18 A3009 RMK AO2 SLP184 T02060178
TAF
KCAK 
20nm W 
161720Z 1618/1718 01005KT P6SM SCT030 BKN090 TEMPO 1618/1621 BKN030 FM170300 04006KT P6SM SCT010 BKN030 FM171300 05010KT P6SM FEW010 SCT030
NOTAMs
Click for the latest NOTAMs
NOTAMs are issued by the DoD/FAA and will open in a separate window not controlled by AirNav.

 

 
 

FBO, Fuel Providers, and Aircraft Ground Support

  
 Business Name 
 
 Contact 
 
 Services / Description 
 
Fuel Prices
 
Comments
  
Tri-City Airport 330-938-1216
no information available

If you are affiliated with Tri-City Airport and would like to show here your services, contact info, web link, logo, and more, click here
100LL
PS $4.89 
 Updated 12-Sep-2019
 
   write
PS=Pump service
Update Fuel Prices
 

Would you like to see your business listed on this page?

 If your business provides an interesting product or service to pilots, flight crews, aircraft, or users of the Tri-City Airport, you should consider listing it here.  To start the listing process, click on the button below
 
Add a business
 

Other Pages about Tri-City Airport

Update a link
 
Copyright © AirNav, LLC. All rights reserved. Privacy Policy  Contact